Location: New Canada
(47.1017°N, 68.5042°W)
Time: 03:41:45
(UTC+00:00)

COSMOS 1818 DEB - Pass Details

Date: 08 December 2023
Orbit: 754 x 785 km, 65.0° (Epoch: 12 November)

Event Time Altitude Azimuth Distance (km) Brightness Sun altitude
Rises 22:15:39 0° 302° (WNW) 3,274 ? -14.8°
Reaches altitude 10° 22:20:01 10° 335° (NNW) 2,349 ? -15.5°
Maximum altitude 22:21:47 12° 355° (N) 2,245 ? -15.8°
Drops below altitude 10° 22:23:34 10° 14° (NNE) 2,351 ? -16.1°
Enters shadow 22:24:10 - 20° (NNE) 2,431 ? -16.2°
